Flag for U.S.A. Weather past 2 weeks in Metlakatla, Alaska, U.S.A.

Now
36 °F

Clear.


Feels Like: 36 °F
Forecast: 40 / 47 °F
Wind: No wind

Location: Metlakatla - Metlakatla Seaplane Base

Current Time: Jan 30, 2015 at 11:50:13 PM

Latest Report: Jan 30, 2015 at 11:16 PM


Visibility: 10 mi

Pressure: 30.37 "Hg

Humidity: 81%

Dew point: 30 °F

Location of MetlakatlaLocation

Historic Weather in Metlakatla — Graph

°F

Metlakatla temperature yesterday

Maximum temperature yesterday: 46 °F (at 11:56 AM)
Minimum temperature yesterday: 41 °F (at 10:16 PM)
Average temperature yesterday: 44 °F

Past Weeks' High & Low Weather Summary

 TemperatureHumidityPressure
High52 °F (Jan 22, 11:16 AM)94% (Jan 21, 5:16 PM)30.37 "Hg (Jan 21, 5:16 PM)
Low36 °F (Jan 30, 8:36 PM)57% (Jan 28, 1:16 AM)29.32 "Hg (Jan 18, 7:16 AM)
Average45 °F81%29.88 "Hg
* Reported Jan 15 10:16 PM — Jan 30 10:36 PM, Metlakatla, Weather by CustomWeather, © 2014

Note: Actual official high and low records may vary slightly from our data, if they occured in-between our weather recording intervals... More about our weather records

Advertising

Metlakatla weather history for previous 24 hours

 ConditionsComfort  
Time TempWeatherWind HumidityBarometerVisibility
10:36 PM
Jan 30
37 °FClear.3 mph75%30.37 "Hg10 mi
10:16 PM37 °FClear.3 mph81%30.36 "Hg10 mi
9:56 PM37 °FClear.No wind81%30.36 "Hg10 mi
9:36 PM37 °FClear.No wind81%30.36 "Hg10 mi
9:16 PM36 °FClear.5 mph87%30.36 "Hg10 mi
8:56 PM36 °FClear.3 mph81%30.36 "Hg10 mi
8:36 PM36 °FClear.3 mph81%30.37 "Hg10 mi
8:16 PM37 °FClear.3 mph75%30.36 "Hg10 mi
7:16 PM39 °FClear.3 mph81%30.36 "Hg10 mi
6:56 PM39 °FClear.3 mph81%30.35 "Hg10 mi
6:36 PM41 °FClear.10 mph76%30.35 "Hg10 mi
6:16 PM43 °FClear.12 mph71%30.35 "Hg10 mi
5:56 PM39 °FClear.6 mph81%30.34 "Hg10 mi
5:36 PM41 °FClear.6 mph76%30.33 "Hg10 mi
5:16 PM43 °FSunny.9 mph66%30.33 "Hg10 mi
4:56 PM43 °FSunny.8 mph71%30.32 "Hg10 mi
4:36 PM43 °FSunny.8 mph71%30.32 "Hg10 mi
4:16 PM43 °FSunny.10 mph71%30.32 "Hg10 mi
3:56 PM43 °FSunny.13 mph71%30.31 "Hg10 mi
3:36 PM43 °FSunny.15 mph71%30.31 "Hg10 mi
3:16 PM43 °FSunny.12 mph71%30.31 "Hg10 mi
2:56 PM43 °FSunny.12 mph71%30.31 "Hg10 mi
2:36 PM43 °FSunny.13 mph71%30.31 "Hg10 mi
2:16 PM43 °FSunny.12 mph71%30.31 "Hg10 mi
1:36 PM43 °FSunny.15 mph71%30.28 "Hg10 mi
1:16 PM43 °FSunny.15 mph71%30.27 "Hg10 mi
12:56 PM43 °FSunny.15 mph71%30.27 "Hg10 mi
12:36 PM43 °FSunny.13 mph71%30.27 "Hg10 mi
12:16 PM43 °FSunny.17 mph61%30.25 "Hg10 mi
11:56 AM43 °FSunny.15 mph61%30.25 "Hg10 mi
11:16 AM43 °FSunny.13 mph61%30.26 "Hg10 mi
10:36 AM41 °FSunny.13 mph70%30.25 "Hg10 mi
10:16 AM41 °FSunny.12 mph70%30.24 "Hg10 mi
9:56 AM41 °FSunny.14 mph76%30.23 "Hg10 mi
9:36 AM41 °FSunny.13 mph70%30.23 "Hg10 mi
9:16 AM39 °FSunny.10 mph75%30.22 "Hg10 mi
8:56 AM41 °FSunny.14 mph70%30.21 "Hg10 mi
8:36 AM41 °FClear.17 mph76%30.20 "Hg10 mi
8:16 AM41 °FClear.17 mph76%30.19 "Hg10 mi
7:56 AM41 °FClear.17 mph70%30.19 "Hg10 mi
7:36 AM41 °FClear.13 mph70%30.20 "Hg10 mi
7:16 AM41 °FClear.15 mph70%30.19 "Hg10 mi
6:56 AM41 °FClear.14 mph70%30.19 "Hg10 mi
6:36 AM41 °FClear.14 mph76%30.18 "Hg10 mi
6:16 AM41 °FClear.14 mph76%30.19 "Hg10 mi
5:56 AM41 °FClear.15 mph76%30.19 "Hg10 mi
5:36 AM41 °FClear.18 mph81%30.19 "Hg10 mi
5:16 AM41 °FPassing clouds.16 mph81%30.19 "Hg10 mi
4:56 AM41 °FPassing clouds.16 mph81%30.19 "Hg10 mi
4:36 AM41 °FPartly cloudy.14 mph81%30.19 "Hg10 mi
4:16 AM41 °FPartly cloudy.14 mph87%30.19 "Hg10 mi
3:56 AM43 °FPassing clouds.14 mph81%30.19 "Hg10 mi
3:36 AM43 °FPassing clouds.13 mph81%30.19 "Hg10 mi
3:16 AM43 °FPassing clouds.9 mph81%30.20 "Hg10 mi
2:56 AM41 °FOvercast.15 mph87%30.20 "Hg10 mi
2:36 AM41 °FOvercast.14 mph87%30.20 "Hg10 mi
2:16 AM41 °FOvercast.13 mph87%30.21 "Hg10 mi
1:36 AM43 °FOvercast.13 mph81%30.21 "Hg10 mi
1:16 AM43 °FOvercast.12 mph81%30.22 "Hg10 mi
12:56 AM43 °FOvercast.10 mph81%30.22 "Hg10 mi
12:36 AM43 °FOvercast.7 mph81%30.23 "Hg10 mi
12:16 AM43 °FOvercast.7 mph76%30.24 "Hg10 mi
11:56 PM
Jan 29
43 °FOvercast.7 mph81%30.24 "Hg10 mi
11:36 PM43 °FOvercast.9 mph76%30.24 "Hg10 mi
11:16 PM43 °FOvercast.8 mph76%30.24 "Hg10 mi
Weather by CustomWeather, © 2014

See weather overviewHow to use our weather pages